TimeCDT,TemperatureF,Dew PointF,Humidity,Sea Level PressureIn,VisibilityMPH,Wind Direction,Wind SpeedMPH,Gust SpeedMPH,PrecipitationIn,Events,Conditions,WindDirDegrees,DateUTC
12:53 AM,55.9,51.1,84,29.78,10.0,Calm,Calm,-,N/A,,Clear,0,2013-05-17 05:53:00
1:53 AM,54.0,50.0,86,29.80,10.0,WNW,6.9,-,N/A,,Clear,290,2013-05-17 06:53:00
2:53 AM,57.0,52.0,83,29.82,10.0,West,3.5,-,N/A,,Clear,260,2013-05-17 07:53:00
3:53 AM,54.0,51.1,90,29.81,10.0,South,6.9,-,N/A,,Clear,170,2013-05-17 08:53:00
4:53 AM,59.0,54.0,83,29.78,10.0,SSE,5.8,-,N/A,,Partly Cloudy,160,2013-05-17 09:53:00
5:53 AM,60.1,54.0,80,29.80,10.0,NNW,3.5,-,N/A,,Clear,340,2013-05-17 10:53:00
6:53 AM,57.2,53.6,88,29.85,10.0,Calm,Calm,-,N/A,,Clear,0,2013-05-17 11:53:00
7:53 AM,61.0,55.9,83,29.83,10.0,SSE,3.5,-,N/A,,Clear,160,2013-05-17 12:53:00
8:53 AM,66.0,59.0,78,29.84,10.0,ESE,4.6,-,N/A,,Clear,120,2013-05-17 13:53:00
9:53 AM,71.1,59.0,66,29.84,10.0,Variable,5.8,-,N/A,,Clear,0,2013-05-17 14:53:00
10:53 AM,73.9,60.1,62,29.83,10.0,South,6.9,-,N/A,,Clear,190,2013-05-17 15:53:00
11:53 AM,78.1,60.1,54,29.82,10.0,SE,10.4,-,N/A,,Clear,130,2013-05-17 16:53:00
12:53 PM,82.0,57.9,44,29.80,10.0,SSE,11.5,17.3,N/A,,Clear,150,2013-05-17 17:53:00
1:53 PM,84.2,57.2,40,29.84,10.0,SE,15.0,25.3,N/A,,Clear,140,2013-05-17 18:53:00
2:53 PM,86.0,55.9,36,29.77,10.0,SSE,16.1,26.5,N/A,,Clear,150,2013-05-17 19:53:00
3:53 PM,88.0,52.0,29,29.75,10.0,SSE,17.3,24.2,N/A,,Clear,160,2013-05-17 20:53:00
4:53 PM,87.1,53.1,31,29.73,10.0,SSE,19.6,28.8,N/A,,Clear,150,2013-05-17 21:53:00
5:53 PM,86.0,53.1,32,29.72,10.0,SE,20.7,25.3,N/A,,Clear,140,2013-05-17 22:53:00
6:53 PM,84.0,54.0,35,29.71,10.0,SSE,20.7,28.8,N/A,,Clear,150,2013-05-17 23:53:00
7:53 PM,81.0,55.9,42,29.71,10.0,SE,18.4,26.5,N/A,,Clear,140,2013-05-18 00:53:00
8:53 PM,77.0,55.9,48,29.72,10.0,SE,12.7,-,N/A,,Clear,130,2013-05-18 01:53:00
9:53 PM,72.0,55.9,57,29.73,10.0,ESE,9.2,-,N/A,,Clear,110,2013-05-18 02:53:00
10:53 PM,70.0,59.0,68,29.76,10.0,ESE,9.2,-,N/A,,Clear,120,2013-05-18 03:53:00
11:53 PM,66.9,61.0,81,29.77,10.0,ESE,8.1,-,N/A,,Clear,110,2013-05-18 04:53:00